Tracking 19730 objects as of 27-Jun-2019
HD Live streaming from Space Station
objects crossing your sky now

SL-8 DEB

Track SL-8 DEB now!
10-day predictions


NORAD ID: 21212
Int'l Code: 1991-009BF
Perigee: 1,470.2 km
Apogee: 1,844.7 km
Inclination: 74.2 °
Period: 119.3 minutes
Semi major axis: 8028 km
RCS: 0.1545 m2 (medium)
Launch date: February 12, 1991
Source: Commonwealth of Independent States (former USSR) (CIS)
Launch site: PLESETSK MISSILE AND SPACE COMPLEX (PKMTR)

Note: This is SATELLITE DEBRIS
aabbcc
Your satellite tracking list
Your tracking list is empty




NASA's NSSDC Master Catalog

Two Line Element Set (TLE):
1 21212U 91009BF  19177.49085451 -.00000265 +00000-0 -26393-2 0  9998
2 21212 074.1533 192.0593 0233203 188.9477 289.1445 12.06850786244320
Source of the keplerian elements: AFSPC